Welcome to our new website - Welkom op onze vernieuwde website - Bienvenue sur notre nouveau site web - Willkommen auf unserer neuen Website
Check our progress frequently. Prüfen Sie unsere Fortschritte regelmäßig. Consultez notre progression fréquemment. Komt u straks nog eens terug


Blik over 't Veldj richting Zuid-Westen Meer informatie Blik over 't Veldj richting Zuid-Westen


Onweer radar Meer informatie blitzortung!


Regen radar Meer informatie rain snow radar


Bezoek onze andere website:

Template documentation
and downloads

And another site


Select another period ( hide this area )

Eenheden Periode Custom range Directly to
Metrisch Engels Beide
Dagelijkse Wekelijkse Maandelijkse Jaarlijkse
use both date-selectors for a custom range
previous Dag
With this date

WeatherUnderground graphs for this period ( click here )


Dagelijkse Samenvatting Zondag 15 december 2019
Tijd Temp. ( °C ) Dew pt. ( °C ) Wind ( km/h ) van Windvlaag ( km/h ) Luchtdruk ( hPa ) Humid.( % ) Rainrate ( cm )
Hoog10,9 8,4 27,4 ZW ( 269/1028 ) 49,9 997,9 92 1,30
Gemiddeld8,2 5,8 10,5 ZW #23/98 20,3 993,9 85 1,30
Laag6,9 3,9 3,2   8,0 991,1 80 -
Dagelijkse Tabular details for Zondag 15 december 2019
Tijd Temp. ( °C ) Dew pt. ( °C ) Wind ( km/h ) van Windvlaag ( km/h ) Luchtdruk ( hPa ) Humid.( % ) Rainrate ( cm )
00:03 6,9 4,0 11,1 Zuiden 11,3 997,9 82 -
00:08 7,0 4,1 6,4 ZZO 14,5 997,9 82 -
00:13 7,0 4,1 6,4 ZZW 8,0 997,5 82 -
00:18 7,0 4,1 6,4 ZZW 14,5 997,2 82 -
00:23 7,0 4,1 7,9 ZZW 16,1 997,2 82 -
00:28 6,9 4,0 7,9 ZZO 14,5 996,8 82 -
00:33 6,9 4,0 16,3 Zuiden 19,3 996,8 82 -
00:38 7,0 4,1 3,2 Zuiden 16,1 996,8 82 -
00:43 7,0 4,0 7,9 ZO 12,9 996,5 81 -
00:48 7,0 4,0 13,0 ZZO 17,7 996,2 81 -
00:53 7,1 4,1 4,7 ZZO 17,7 996,2 81 -
00:58 7,2 4,2 6,4 ZZW 11,3 996,2 81 -
01:03 7,2 4,0 6,4 ZO 16,1 996,2 80 -
01:08 7,2 4,0 7,9 ZO 14,5 996,2 80 -
01:13 7,2 4,0 9,7 ZZO 16,1 995,8 80 -
01:18 7,2 4,0 4,7 Zuiden 17,7 995,8 80 -
01:23 7,2 4,0 6,4 Zuiden 12,9 995,5 80 -
01:28 7,2 4,0 6,4 ZO 8,0 995,5 80 -
01:33 7,1 3,9 6,4 ZO 12,9 995,1 80 -
01:38 7,1 3,9 7,9 ZO 17,7 995,1 80 -
01:43 7,1 4,1 4,7 ZZO 17,7 995,1 81 -
01:48 7,1 4,1 13,0 ZO 16,1 995,1 81 -
01:53 7,1 4,1 6,4 Zuiden 12,9 995,1 81 -
01:58 7,2 4,2 11,1 ZZO 12,9 994,8 81 -
02:03 7,2 4,2 9,7 Zuiden 11,3 995,1 81 -
02:08 7,2 4,2 13,0 ZO 12,9 994,8 81 -
02:13 7,3 4,3 3,2 ZW 14,5 994,5 81 -
02:18 7,3 4,3 4,7 ZZO 12,9 994,5 81 -
02:23 7,4 4,4 4,7 Zuiden 14,5 994,5 81 -
02:28 7,4 4,4 14,3 ZO 16,1 994,1 81 -
02:33 7,4 4,4 9,7 ZZO 12,9 994,1 81 -
02:38 7,5 4,5 20,9 ZO 24,1 994,1 81 -
02:43 7,7 5,2 9,7 ZZO 17,7 994,1 84 -
02:48 7,6 5,4 4,7 ZO 25,7 994,1 86 -
02:53 7,4 5,4 9,7 ZZO 12,9 993,8 87 -
02:58 7,3 5,6 6,4 ZZO 11,3 993,8 89 0,30
03:03 7,2 5,7 7,9 ZZO 9,7 993,8 90 0,30
03:08 7,1 5,7 6,4 OZO 11,3 993,5 91 0,30
03:13 7,1 5,7 3,2 ZO 14,5 993,5 91 0,50
03:18 7,2 6,0 22,7 ZZO 22,5 993,5 92 0,50
03:23 7,3 6,1 6,4 ZZO 17,7 993,1 92 0,50
03:28 7,4 6,2 4,7 ZZW 16,1 993,1 92 0,50
03:33 7,6 6,4 4,7 Zuiden 12,9 992,8 92 0,50
03:38 7,7 6,5 4,7 ZZW 16,1 992,8 92 0,50
03:43 7,8 6,4 16,3 ZZW 16,1 992,8 91 0,50
03:48 8,0 6,6 11,1 Zuiden 20,9 992,8 91 0,50
03:53 8,3 6,8 13,0 Zuiden 14,5 992,4 90 0,50
03:58 8,5 6,8 3,2 ZZW 20,9 992,4 89 0,30
04:11 9,0 7,1 7,9 ZZW 22,5 992,1 88 -
04:16 9,1 7,1 7,9 ZZO 19,3 992,1 87 -
04:21 9,2 7,1 9,7 ZW 19,3 992,1 87 -
04:26 9,2 7,3 13,0 WZW 30,6 991,8 88 0,30
04:31 9,2 7,3 6,4 Zuiden 19,3 991,8 88 0,50
04:36 9,2 7,3 11,1 Zuiden 14,5 991,8 88 0,50
04:41 9,1 7,4 11,1 Zuiden 17,7 991,8 89 0,50
04:46 9,2 7,5 7,9 ZW 16,1 991,8 89 0,50
04:51 9,2 7,6 13,0 ZW 19,3 991,8 90 0,50
04:56 9,2 7,6 4,7 ZW 16,1 991,8 90 0,50
05:01 9,2 7,6 16,3 Zuiden 27,4 991,4 90 0,50
05:06 9,2 7,6 9,7 ZZO 22,5 991,4 90 0,80
05:11 9,3 7,9 11,1 ZO 16,1 991,4 91 0,80
05:16 9,3 7,9 7,9 Zuiden 17,7 991,4 91 0,80
05:21 9,4 8,0 7,9 Zuiden 22,5 991,1 91 0,80
05:26 9,6 8,2 13,0 Zuiden 29,0 991,4 91 0,50
05:31 9,7 8,1 19,5 ZZW 30,6 991,1 90 0,50
05:36 9,9 8,3 13,0 ZW 19,3 991,4 90 0,50
05:41 10,1 8,4 9,7 ZW 27,4 991,4 89 0,50
05:46 10,2 8,1 11,1 ZW 22,5 991,4 87 0,50
05:51 10,3 8,2 14,3 ZZO 30,6 991,4 87 0,30
05:56 10,5 8,1 19,5 Westen 25,7 991,4 85 0,30
06:01 10,6 8,0 17,7 ZZW 38,6 991,4 84 0,30
06:06 10,7 7,9 22,7 Westen 37,0 991,4 83 -
06:11 10,9 7,9 27,4 ZW 29,0 991,4 82 -
06:16 10,9 7,9 16,3 ZW 19,3 991,8 82 -
06:22 10,8 8,0 13,0 ZW 45,1 992,8 83 0,50
06:27 10,1 7,7 16,3 ZW 49,9 993,1 85 0,50
06:32 9,2 6,8 25,9 WZW 32,2 993,5 85 0,80
06:37 8,6 6,2 11,1 ZW 41,8 993,8 85 1,30
06:42 8,3 6,1 14,3 WNW 33,8 993,8 86 1,30
06:47 8,1 5,9 7,9 WZW 30,6 993,5 86 1,30
06:52 8,1 5,7 6,4 ZW 33,8 993,8 85 1,30
06:57 8,1 5,4 16,3 ZW 24,1 993,8 83 1,30
07:02 8,2 5,3 16,3 ZW 24,1 994,1 82 1,30
07:07 8,2 5,1 7,9 WZW 27,4 994,1 81 1,30
07:12 8,3 5,2 14,3 ZW 25,7 994,1 81 1,30
07:17 8,3 5,2 11,1 Zuiden 30,6 994,1 81 1,30
07:22 8,4 5,3 9,7 Westen 20,9 994,1 81 0,80
07:27 8,4 5,5 17,7 WZW 25,7 994,1 82 0,50
07:32 8,4 5,5 6,4 WZW 22,5 994,5 82 0,50
07:37 8,3 5,4 7,9 ZZW 19,3 994,8 82 -
07:42 8,3 5,6 13,0 ZW 19,3 994,8 83 -
07:47 8,3 5,6 6,4 ZW 19,3 994,8 83 -
07:52 8,3 5,6 3,2 ZW 20,9 995,1 83 -
07:57 8,2 5,5 17,7 WZW 20,9 995,1 83 -
08:02 8,2 5,5 13,0 ZW 20,9 995,1 83 -
08:07 8,2 5,5 14,3 ZW 22,5 995,5 83 -
08:12 8,2 5,5 9,7 ZW 17,7 995,5 83 -
08:17 8,1 5,4 14,3 ZZW 17,7 995,8 83 -
Dagelijkse Samenvatting Zondag 15 december 2019
Tijd Temp. ( °C ) Dew pt. ( °C ) Wind ( km/h ) van Windvlaag ( km/h ) Luchtdruk ( hPa ) Humid.( % ) Rainrate ( cm )
Hoog10,9 8,4 27,4 ZW ( 269/1028 ) 49,9 997,9 92 1,30
Gemiddeld8,2 5,8 10,5 ZW #23/98 20,3 993,9 85 1,30
Laag6,9 3,9 3,2   8,0 991,1 80 -
Dagelijkse Tabular details for Zondag 15 december 2019
Tijd Temp. ( °C ) Dew pt. ( °C ) Wind ( km/h ) van Windvlaag ( km/h ) Luchtdruk ( hPa ) Humid.( % ) Rainrate ( cm )
00:03 6,9 4,0 11,1 Zuiden 11,3 997,9 82 -
00:08 7,0 4,1 6,4 ZZO 14,5 997,9 82 -
00:13 7,0 4,1 6,4 ZZW 8,0 997,5 82 -
00:18 7,0 4,1 6,4 ZZW 14,5 997,2 82 -
00:23 7,0 4,1 7,9 ZZW 16,1 997,2 82 -
00:28 6,9 4,0 7,9 ZZO 14,5 996,8 82 -
00:33 6,9 4,0 16,3 Zuiden 19,3 996,8 82 -
00:38 7,0 4,1 3,2 Zuiden 16,1 996,8 82 -
00:43 7,0 4,0 7,9 ZO 12,9 996,5 81 -
00:48 7,0 4,0 13,0 ZZO 17,7 996,2 81 -
00:53 7,1 4,1 4,7 ZZO 17,7 996,2 81 -
00:58 7,2 4,2 6,4 ZZW 11,3 996,2 81 -
01:03 7,2 4,0 6,4 ZO 16,1 996,2 80 -
01:08 7,2 4,0 7,9 ZO 14,5 996,2 80 -
01:13 7,2 4,0 9,7 ZZO 16,1 995,8 80 -
01:18 7,2 4,0 4,7 Zuiden 17,7 995,8 80 -
01:23 7,2 4,0 6,4 Zuiden 12,9 995,5 80 -
01:28 7,2 4,0 6,4 ZO 8,0 995,5 80 -
01:33 7,1 3,9 6,4 ZO 12,9 995,1 80 -
01:38 7,1 3,9 7,9 ZO 17,7 995,1 80 -
01:43 7,1 4,1 4,7 ZZO 17,7 995,1 81 -
01:48 7,1 4,1 13,0 ZO 16,1 995,1 81 -
01:53 7,1 4,1 6,4 Zuiden 12,9 995,1 81 -
01:58 7,2 4,2 11,1 ZZO 12,9 994,8 81 -
02:03 7,2 4,2 9,7 Zuiden 11,3 995,1 81 -
02:08 7,2 4,2 13,0 ZO 12,9 994,8 81 -
02:13 7,3 4,3 3,2 ZW 14,5 994,5 81 -
02:18 7,3 4,3 4,7 ZZO 12,9 994,5 81 -
02:23 7,4 4,4 4,7 Zuiden 14,5 994,5 81 -
02:28 7,4 4,4 14,3 ZO 16,1 994,1 81 -
02:33 7,4 4,4 9,7 ZZO 12,9 994,1 81 -
02:38 7,5 4,5 20,9 ZO 24,1 994,1 81 -
02:43 7,7 5,2 9,7 ZZO 17,7 994,1 84 -
02:48 7,6 5,4 4,7 ZO 25,7 994,1 86 -
02:53 7,4 5,4 9,7 ZZO 12,9 993,8 87 -
02:58 7,3 5,6 6,4 ZZO 11,3 993,8 89 0,30
03:03 7,2 5,7 7,9 ZZO 9,7 993,8 90 0,30
03:08 7,1 5,7 6,4 OZO 11,3 993,5 91 0,30
03:13 7,1 5,7 3,2 ZO 14,5 993,5 91 0,50
03:18 7,2 6,0 22,7 ZZO 22,5 993,5 92 0,50
03:23 7,3 6,1 6,4 ZZO 17,7 993,1 92 0,50
03:28 7,4 6,2 4,7 ZZW 16,1 993,1 92 0,50
03:33 7,6 6,4 4,7 Zuiden 12,9 992,8 92 0,50
03:38 7,7 6,5 4,7 ZZW 16,1 992,8 92 0,50
03:43 7,8 6,4 16,3 ZZW 16,1 992,8 91 0,50
03:48 8,0 6,6 11,1 Zuiden 20,9 992,8 91 0,50
03:53 8,3 6,8 13,0 Zuiden 14,5 992,4 90 0,50
03:58 8,5 6,8 3,2 ZZW 20,9 992,4 89 0,30
04:11 9,0 7,1 7,9 ZZW 22,5 992,1 88 -
04:16 9,1 7,1 7,9 ZZO 19,3 992,1 87 -
04:21 9,2 7,1 9,7 ZW 19,3 992,1 87 -
04:26 9,2 7,3 13,0 WZW 30,6 991,8 88 0,30
04:31 9,2 7,3 6,4 Zuiden 19,3 991,8 88 0,50
04:36 9,2 7,3 11,1 Zuiden 14,5 991,8 88 0,50
04:41 9,1 7,4 11,1 Zuiden 17,7 991,8 89 0,50
04:46 9,2 7,5 7,9 ZW 16,1 991,8 89 0,50
04:51 9,2 7,6 13,0 ZW 19,3 991,8 90 0,50
04:56 9,2 7,6 4,7 ZW 16,1 991,8 90 0,50
05:01 9,2 7,6 16,3 Zuiden 27,4 991,4 90 0,50
05:06 9,2 7,6 9,7 ZZO 22,5 991,4 90 0,80
05:11 9,3 7,9 11,1 ZO 16,1 991,4 91 0,80
05:16 9,3 7,9 7,9 Zuiden 17,7 991,4 91 0,80
05:21 9,4 8,0 7,9 Zuiden 22,5 991,1 91 0,80
05:26 9,6 8,2 13,0 Zuiden 29,0 991,4 91 0,50
05:31 9,7 8,1 19,5 ZZW 30,6 991,1 90 0,50
05:36 9,9 8,3 13,0 ZW 19,3 991,4 90 0,50
05:41 10,1 8,4 9,7 ZW 27,4 991,4 89 0,50
05:46 10,2 8,1 11,1 ZW 22,5 991,4 87 0,50
05:51 10,3 8,2 14,3 ZZO 30,6 991,4 87 0,30
05:56 10,5 8,1 19,5 Westen 25,7 991,4 85 0,30
06:01 10,6 8,0 17,7 ZZW 38,6 991,4 84 0,30
06:06 10,7 7,9 22,7 Westen 37,0 991,4 83 -
06:11 10,9 7,9 27,4 ZW 29,0 991,4 82 -
06:16 10,9 7,9 16,3 ZW 19,3 991,8 82 -
06:22 10,8 8,0 13,0 ZW 45,1 992,8 83 0,50
06:27 10,1 7,7 16,3 ZW 49,9 993,1 85 0,50
06:32 9,2 6,8 25,9 WZW 32,2 993,5 85 0,80
06:37 8,6 6,2 11,1 ZW 41,8 993,8 85 1,30
06:42 8,3 6,1 14,3 WNW 33,8 993,8 86 1,30
06:47 8,1 5,9 7,9 WZW 30,6 993,5 86 1,30
06:52 8,1 5,7 6,4 ZW 33,8 993,8 85 1,30
06:57 8,1 5,4 16,3 ZW 24,1 993,8 83 1,30
07:02 8,2 5,3 16,3 ZW 24,1 994,1 82 1,30
07:07 8,2 5,1 7,9 WZW 27,4 994,1 81 1,30
07:12 8,3 5,2 14,3 ZW 25,7 994,1 81 1,30
07:17 8,3 5,2 11,1 Zuiden 30,6 994,1 81 1,30
07:22 8,4 5,3 9,7 Westen 20,9 994,1 81 0,80
07:27 8,4 5,5 17,7 WZW 25,7 994,1 82 0,50
07:32 8,4 5,5 6,4 WZW 22,5 994,5 82 0,50
07:37 8,3 5,4 7,9 ZZW 19,3 994,8 82 -
07:42 8,3 5,6 13,0 ZW 19,3 994,8 83 -
07:47 8,3 5,6 6,4 ZW 19,3 994,8 83 -
07:52 8,3 5,6 3,2 ZW 20,9 995,1 83 -
07:57 8,2 5,5 17,7 WZW 20,9 995,1 83 -
08:02 8,2 5,5 13,0 ZW 20,9 995,1 83 -
08:07 8,2 5,5 14,3 ZW 22,5 995,5 83 -
08:12 8,2 5,5 9,7 ZW 17,7 995,5 83 -
08:17 8,1 5,4 14,3 ZZW 17,7 995,8 83 -

Download your copy of this data-set  here

Our weather-data as stored at Weather Underground. Script ontwikkeld door Jim McMurry. Aangepast voor de template door Leuven-Template.eu

U vindt ons ook hier:

UK Metoffice

Weather Underground

AWEKAS

Apparatuur in gebruik:

Weerstation
Davis Vantage Vue

Webleverancier
One.com

Davis Vantage Vue

One.com